Time,TemperatureF,DewpointF,PressureIn,WindDirection,WindDirectionDegrees,WindSpeedMPH,WindSpeedGustMPH,Humidity,HourlyPrecipIn,Conditions,Clouds,dailyrainin,SoftwareType,DateUTC
2013-03-09 01:00:00,38.5,26.9,29.92,ENE,68,4.0,4.0,63,0.00,,,0.00,WUHU216HW,2013-03-09 08:00:00,
2013-03-09 01:01:00,38.5,26.9,29.92,East,90,1.1,4.0,63,0.00,,,0.00,WUHU216HW,2013-03-09 08:01:00,
2013-03-09 01:06:00,38.5,26.9,29.93,WSW,248,2.5,8.7,63,0.00,,,0.00,WUHU216HW,2013-03-09 08:06:00,
2013-03-09 01:11:00,38.5,26.9,29.93,North,0,3.4,8.7,63,0.00,,,0.00,WUHU216HW,2013-03-09 08:11:00,
2013-03-09 01:17:00,38.5,26.9,29.93,North,0,3.4,4.7,63,0.00,,,0.00,WUHU216HW,2013-03-09 08:17:00,
2013-03-09 01:38:00,38.2,26.7,29.93,NE,45,1.8,1.8,63,0.00,,,0.00,WUHU216HW,2013-03-09 08:38:00,
2013-03-09 01:43:00,38.2,26.7,29.93,NE,45,1.8,1.8,63,0.00,,,0.00,WUHU216HW,2013-03-09 08:43:00,
2013-03-09 02:00:00,38.2,26.7,29.94,North,0,0.2,0.2,63,0.00,,,0.00,WUHU216HW,2013-03-09 09:00:00,
2013-03-09 02:05:00,38.2,26.7,29.94,North,0,0.2,0.2,63,0.00,,,0.00,WUHU216HW,2013-03-09 09:05:00,
2013-03-09 02:10:00,38.2,26.7,29.94,North,0,0.2,0.2,63,0.00,,,0.00,WUHU216HW,2013-03-09 09:10:00,
2013-03-09 02:30:00,38.2,26.7,29.93,WNW,293,0.0,0.0,63,0.00,,,0.00,WUHU216HW,2013-03-09 09:30:00,
2013-03-09 02:35:00,38.2,26.7,29.93,WNW,293,0.0,0.0,63,0.00,,,0.00,WUHU216HW,2013-03-09 09:35:00,
2013-03-09 03:00:00,38.2,26.7,29.93,North,0,0.0,0.4,63,0.00,,,0.00,WUHU216HW,2013-03-09 10:00:00,
2013-03-09 03:05:00,38.2,26.7,29.93,North,0,0.0,0.4,63,0.00,,,0.00,WUHU216HW,2013-03-09 10:05:00,
2013-03-09 03:30:00,37.8,26.3,29.93,NE,45,0.4,0.4,63,0.00,,,0.00,WUHU216HW,2013-03-09 10:30:00,
2013-03-09 03:35:00,37.8,26.3,29.93,NE,45,0.4,0.4,63,0.00,,,0.00,WUHU216HW,2013-03-09 10:35:00,
2013-03-09 04:00:00,37.8,26.6,29.94,North,0,1.1,1.8,64,0.00,,,0.00,WUHU216HW,2013-03-09 11:00:00,
2013-03-09 04:05:00,37.8,26.6,29.94,North,0,1.1,1.8,64,0.00,,,0.00,WUHU216HW,2013-03-09 11:05:00,
2013-03-09 04:30:00,38.0,26.8,29.94,NNW,338,3.4,3.4,64,0.00,,,0.00,WUHU216HW,2013-03-09 11:30:00,
2013-03-09 04:35:00,38.0,26.8,29.94,NNW,338,3.4,3.4,64,0.00,,,0.00,WUHU216HW,2013-03-09 11:35:00,
2013-03-09 05:00:00,37.8,27.5,29.95,WNW,293,2.2,2.2,66,0.00,,,0.00,WUHU216HW,2013-03-09 12:00:00,
2013-03-09 05:05:00,37.8,27.5,29.95,WNW,293,2.2,2.2,66,0.00,,,0.00,WUHU216HW,2013-03-09 12:05:00,
2013-03-09 05:10:00,37.8,27.5,29.95,WNW,293,2.2,2.2,66,0.00,,,0.00,WUHU216HW,2013-03-09 12:10:00,
2013-03-09 05:30:00,37.8,27.5,29.97,WNW,293,2.9,2.9,66,0.00,,,0.00,WUHU216HW,2013-03-09 12:30:00,
2013-03-09 05:35:00,37.8,27.5,29.97,WNW,293,2.9,2.9,66,0.00,,,0.00,WUHU216HW,2013-03-09 12:35:00,
2013-03-09 06:00:00,37.4,27.9,29.97,NNW,338,0.0,0.2,68,0.00,,,0.00,WUHU216HW,2013-03-09 13:00:00,
2013-03-09 06:05:00,37.4,27.9,29.97,NNW,338,0.0,0.2,68,0.00,,,0.00,WUHU216HW,2013-03-09 13:05:00,
2013-03-09 06:10:00,37.4,27.9,29.97,NNW,338,0.0,0.0,68,0.00,,,0.00,WUHU216HW,2013-03-09 13:10:00,
2013-03-09 06:30:00,37.6,25.7,29.98,North,0,3.1,3.1,62,0.00,,,0.00,WUHU216HW,2013-03-09 13:30:00,
2013-03-09 06:35:00,37.6,25.7,29.98,North,0,3.1,3.1,62,0.00,,,0.00,WUHU216HW,2013-03-09 13:35:00,
2013-03-09 07:00:00,37.6,25.7,29.99,NNW,338,1.8,1.8,62,0.00,,,0.00,WUHU216HW,2013-03-09 14:00:00,
2013-03-09 07:05:00,37.6,25.7,29.99,NNW,338,1.8,1.8,62,0.00,,,0.00,WUHU216HW,2013-03-09 14:05:00,
2013-03-09 07:30:00,37.4,27.5,30.00,NNW,338,0.4,0.4,67,0.00,,,0.00,WUHU216HW,2013-03-09 14:30:00,
2013-03-09 07:35:00,37.4,27.5,30.00,NNW,338,0.4,0.4,67,0.00,,,0.00,WUHU216HW,2013-03-09 14:35:00,
2013-03-09 08:00:00,38.2,24.7,30.01,NNW,338,4.9,4.9,58,0.00,,,0.00,WUHU216HW,2013-03-09 15:00:00,
2013-03-09 08:05:00,38.2,24.7,30.01,NNW,338,4.9,4.9,58,0.00,,,0.00,WUHU216HW,2013-03-09 15:05:00,
2013-03-09 08:30:00,39.2,22.1,30.01,NNE,23,5.4,5.4,50,0.00,,,0.00,WUHU216HW,2013-03-09 15:30:00,
2013-03-09 08:39:00,39.2,22.1,30.01,NNE,23,5.4,5.4,50,0.00,,,0.00,WUHU216HW,2013-03-09 15:39:00,
2013-03-09 09:00:00,41.4,22.5,30.02,North,0,3.8,3.8,47,0.00,,,0.00,WUHU216HW,2013-03-09 16:00:00,
2013-03-09 09:05:00,41.4,22.5,30.02,North,0,3.8,3.8,47,0.00,,,0.00,WUHU216HW,2013-03-09 16:05:00,
2013-03-09 09:30:00,41.8,21.3,30.02,ENE,68,4.9,4.9,44,0.00,,,0.00,WUHU216HW,2013-03-09 16:30:00,
2013-03-09 09:35:00,41.8,21.3,30.02,ENE,68,4.9,4.9,44,0.00,,,0.00,WUHU216HW,2013-03-09 16:35:00,
2013-03-09 10:00:00,41.6,21.7,30.04,NNW,338,11.0,11.0,45,0.00,,,0.00,WUHU216HW,2013-03-09 17:00:00,
2013-03-09 10:05:00,41.6,21.7,30.04,NNW,338,11.0,11.0,45,0.00,,,0.00,WUHU216HW,2013-03-09 17:05:00,
2013-03-09 10:30:00,41.8,20.8,30.05,ENE,68,11.9,11.9,43,0.00,,,0.00,WUHU216HW,2013-03-09 17:30:00,
2013-03-09 10:35:00,41.8,20.8,30.05,ENE,68,11.9,11.9,43,0.00,,,0.00,WUHU216HW,2013-03-09 17:35:00,
2013-03-09 11:01:00,42.3,21.2,30.06,NNW,338,6.3,6.3,43,0.00,,,0.00,WUHU216HW,2013-03-09 18:01:00,
2013-03-09 11:06:00,42.3,21.2,30.06,NNW,338,6.3,6.3,43,0.00,,,0.00,WUHU216HW,2013-03-09 18:06:00,
2013-03-09 11:30:00,42.8,21.2,30.06,North,0,6.9,6.9,42,0.00,,,0.00,WUHU216HW,2013-03-09 18:30:00,
2013-03-09 11:35:00,42.8,21.2,30.06,North,0,6.9,6.9,42,0.00,,,0.00,WUHU216HW,2013-03-09 18:35:00,
2013-03-09 12:00:00,42.8,22.3,30.07,NE,45,10.3,10.3,44,0.00,,,0.00,WUHU216HW,2013-03-09 19:00:00,
2013-03-09 12:05:00,42.8,22.3,30.07,NE,45,10.3,10.3,44,0.00,,,0.00,WUHU216HW,2013-03-09 19:05:00,